Wind_Speed
10 10 11 11 13 15 14 14 12 9 7 6 5 8 10 10 11 12 11 10 10 11 12 13 12 12 11 9 8 7 7 7 9 12 13 13 13 11 10 9 7 6 6 6 6 6 6 7 6 5 5 5 6 7 8 8 8 9 10 11 12 13 14 13 14 16 19 23 24 25 25 25 25 26 27 29 30 30 30 30 31 31 31 32 32 31 30
10 11 11 12 14 16 16 16 14 11 8 6 5 6 9 10 11 11 11 10 10 10 11 12 12 11 10 9 8 8 8 9 11 13 14 14 12 9 9 8 8 8 7 6 7 8 9 9 9 9 9 9 9 10 10 11 11 12 13 13 14 16 16 15 14 16 19 22 24 25 26 25 26 26 27 29 31 31 31 32 34 34 34 35 36 37 36
10 11 11 12 14 16 17 17 16 14 10 8 5 5 7 10 11 12 11 10 10 10 10 10 10 10 9 8 7 7 7 9 11 13 13 13 12 10 9 9 9 10 10 10 9 9 10 11 11 12 12 12 12 12 13 14 14 15 16 16 17 18 18 18 17 17 18 20 22 24 27 28 27 27 27 28 29 30 31 34 36 37 36 37 39 40 40
10 11 12 12 14 16 17 17 18 16 13 10 8 6 7 10 12 13 13 11 11 10 9 9 9 9 8 6 6 6 7 9 11 13 13 13 13 12 11 10 10 11 11 12 12 12 12 12 12 12 12 13 13 14 14 15 15 16 16 16 17 18 18 18 19 20 20 20 21 22 24 27 28 29 29 29 29 29 30 33 36 38 40 41 41 42 42
10 11 12 12 13 16 18 18 18 17 15 13 11 9 8 10 12 14 14 13 11 10 9 8 8 8 7 7 6 7 8 10 11 12 12 12 12 12 12 12 12 12 12 12 13 13 13 13 13 13 13 13 14 14 15 15 16 16 16 17 17 18 19 19 20 20 20 20 21 21 22 24 26 28 29 30 30 30 31 32 34 37 40 43 44 44 44
10 11 12 12 13 16 18 18 18 17 16 15 14 12 10 11 12 14 14 14 12 11 10 9 8 8 8 9 8 8 10 11 11 11 11 11 12 12 12 13 13 13 13 13 13 13 14 15 15 15 15 16 16 16 16 16 16 17 17 18 19 19 20 20 21 21 21 21 21 22 23 24 25 27 28 29 31 31 32 33 35 37 39 42 44 45 45
11 11 12 12 13 15 17 18 18 17 16 16 15 14 12 12 12 13 14 14 14 13 12 11 11 11 11 11 11 11 12 13 13 13 13 13 13 13 13 13 13 13 14 14 14 15 15 16 16 16 17 17 18 18 18 18 18 18 19 19 20 20 20 20 20 22 22 23 24 25 26 28 29 31 32 33 33 34 34 34 36 37 39 41 43 44 46
11 11 12 12 13 15 17 18 18 17 16 16 16 15 13 12 12 12 13 14 14 14 13 13 14 14 13 13 12 13 15 16 17 17 16 15 14 14 13 13 13 14 15 15 15 15 16 16 16 17 18 18 18 19 20 20 20 20 20 21 21 21 21 21 21 22 23 24 26 28 30 32 34 36 37 39 39 39 38 36 35 36 37 40 42 42 43
10 11 12 12 13 14 16 18 18 17 17 16 16 15 14 13 12 12 13 13 14 14 13 13 14 14 13 13 13 14 17 20 20 19 16 15 15 14 14 14 13 14 15 15 15 15 16 16 16 17 18 19 19 19 20 21 21 21 22 22 22 21 22 22 23 25 26 27 29 31 33 35 38 39 40 41 41 41 40 38 35 33 33 35 38 41 43
10 11 12 12 13 14 16 17 18 18 17 17 16 15 14 13 12 13 13 13 13 13 12 12 13 13 13 13 15 17 19 20 19 17 15 15 14 13 13 13 13 14 14 14 15 16 16 17 17 18 19 19 19 19 19 21 22 22 22 22 22 22 22 23 24 26 28 29 31 34 36 38 39 40 41 41 41 40 38 37 34 32 30 31 33 37 41
10 11 12 12 13 14 15 17 17 18 18 17 16 15 14 13 13 13 14 14 13 12 11 12 13 14 15 17 18 18 18 17 16 15 15 15 14 12 12 13 13 13 13 14 15 16 17 17 18 18 19 20 19 19 20 20 21 22 22 22 22 22 23 24 25 26 29 31 33 35 37 38 39 40 40 39 38 37 35 33 32 30 30 29 30 32 36
10 11 12 12 13 14 14 16 17 18 18 17 16 16 15 14 14 15 15 14 13 12 12 14 15 17 18 18 17 15 14 14 13 14 14 14 13 12 12 12 12 12 13 15 16 17 17 17 18 18 19 19 19 19 20 20 20 21 22 22 22 23 24 25 25 27 29 31 33 35 37 37 38 38 37 36 34 32 30 29 29 28 28 28 29 31 33
10 11 11 12 13 14 14 15 16 17 18 17 17 16 15 15 15 16 15 15 14 14 15 16 17 18 17 16 14 13 12 12 12 12 13 14 13 11 11 11 12 13 14 16 17 17 17 17 18 18 19 19 20 20 20 20 20 20 21 22 23 24 24 25 26 28 30 32 34 36 36 37 36 35 34 32 30 28 27 27 27 26 26 27 27 28 30
10 11 11 12 13 14 14 15 16 17 17 17 17 16 16 16 16 17 17 16 15 15 16 16 16 15 15 15 14 12 11 11 11 12 13 13 12 11 11 11 12 13 14 16 16 17 17 17 18 18 19 20 21 21 21 21 20 20 21 22 23 24 25 26 27 29 30 33 35 37 37 37 35 33 31 30 28 26 25 26 26 24 24 25 25 27 28
10 11 11 12 12 13 14 14 15 16 17 17 17 17 17 17 17 18 18 17 16 16 15 14 13 13 14 14 14 12 11 11 11 12 12 12 12 12 12 12 13 14 15 16 17 17 17 17 18 19 19 20 21 22 22 22 22 22 23 24 24 25 26 27 28 30 31 34 36 37 38 36 34 32 30 28 26 25 25 25 25 23 23 23 24 25 26
9 11 11 11 12 12 13 14 15 15 16 16 17 17 17 17 18 18 18 18 17 16 14 13 13 13 14 14 13 12 12 11 11 12 12 12 14 14 14 13 14 15 16 17 17 17 18 18 18 19 20 20 21 22 22 22 23 23 24 25 25 26 27 28 30 31 32 34 36 37 37 34 31 29 28 27 26 25 25 25 25 24 24 24 24 24 25
10 10 11 12 12 12 13 13 14 15 15 16 17 17 17 18 18 19 19 18 18 16 15 14 14 14 14 14 13 13 12 12 12 12 12 13 15 16 15 14 14 15 16 16 17 17 18 18 19 20 20 21 21 22 22 23 24 24 25 26 26 27 28 29 31 32 33 34 35 36 35 33 30 27 25 25 25 24 24 24 25 25 26 26 25 25 24
10 10 11 12 12 12 12 13 14 14 15 15 16 17 17 18 18 19 19 19 18 17 16 16 15 15 14 14 13 13 13 13 13 14 14 15 17 17 16 15 15 15 16 16 17 18 18 19 20 20 21 21 22 23 23 24 25 25 26 27 27 28 29 30 31 32 33 34 35 35 33 31 28 25 23 24 24 23 23 23 24 24 26 26 26 26 25
10 10 11 11 11 12 12 13 13 14 14 15 16 16 17 18 19 19 19 19 18 18 17 17 16 16 15 15 15 14 14 14 15 15 15 16 17 18 17 17 17 17 17 17 18 18 18 19 19 20 21 21 22 23 23 24 25 26 27 27 28 29 30 30 31 31 32 33 34 33 31 29 26 23 22 23 23 23 22 23 23 24 25 25 26 26 25
10 10 11 11 11 11 12 12 13 14 14 15 15 15 16 17 18 19 19 19 19 19 19 18 18 17 17 16 16 15 15 16 16 16 16 17 18 18 18 18 18 18 18 18 18 18 18 18 19 20 21 21 22 23 23 24 25 26 27 28 28 29 30 30 30 31 31 32 32 31 28 26 25 22 21 21 22 22 22 22 23 24 24 23 24 25 25
11 10 10 11 11 11 12 12 12 13 14 15 15 15 15 16 18 18 19 20 20 20 20 19 19 19 18 18 17 17 17 17 17 17 18 18 18 19 19 19 19 19 19 19 19 18 18 19 19 20 21 21 22 23 23 24 25 26 26 27 28 28 29 30 30 30 30 31 31 30 28 25 22 21 20 20 21 21 22 21 22 23 23 24 24 25 26
11 11 11 11 11 12 12 12 12 12 13 14 15 15 14 15 16 17 18 19 20 20 21 20 20 20 19 19 19 18 18 19 19 19 19 19 19 19 20 20 20 19 19 19 19 19 19 19 20 20 21 21 22 23 24 24 25 26 26 27 27 28 29 29 29 29 29 30 29 29 27 23 20 20 20 20 20 20 20 20 20 21 22 24 24 25 26
11 11 11 11 11 11 12 12 12 12 13 14 14 14 14 14 15 16 17 18 19 20 21 21 21 20 20 20 20 19 19 20 20 20 20 20 19 19 20 20 20 20 19 19 18 19 19 20 20 21 21 22 23 24 24 25 26 26 26 27 27 28 29 29 29 29 29 29 28 27 26 23 20 19 19 19 20 20 20 20 20 20 21 23 23 24 24
12 11 11 11 11 11 12 12 11 11 12 13 14 14 14 14 14 15 16 17 18 19 20 20 20 20 20 20 20 20 20 20 20 20 20 20 20 19 19 19 20 20 19 18 19 19 20 20 20 21 21 22 23 24 25 25 26 26 27 27 27 28 28 29 29 28 28 27 26 26 25 23 21 20 19 19 19 20 20 20 20 20 21 22 23 23 24
12 12 11 11 11 11 12 12 11 11 12 13 13 13 14 14 14 14 14 15 16 18 19 19 19 20 20 20 20 20 19 19 20 20 20 20 20 19 19 19 19 19 19 18 19 20 20 20 21 21 22 23 23 24 25 25 26 26 27 27 27 28 28 28 28 28 26 25 25 24 24 23 22 20 20 19 19 20 20 20 21 20 20 21 22 23 24
13 12 12 12 11 11 12 12 11 11 12 12 13 13 14 14 14 14 14 14 15 16 17 18 18 18 19 19 19 19 18 18 18 18 19 19 19 19 19 18 18 18 18 19 19 20 20 21 21 22 22 23 23 24 25 25 26 26 26 27 27 28 28 28 28 27 26 24 23 23 22 22 22 21 21 20 19 19 20 21 22 22 21 21 22 24 26
13 13 12 12 12 12 12 12 11 11 12 12 12 13 13 14 14 14 14 14 14 15 16 16 16 16 17 18 18 17 17 17 17 17 17 17 18 18 18 17 17 17 18 18 19 20 20 21 21 22 23 23 24 24 25 25 26 26 26 27 27 27 27 27 28 27 26 24 23 22 22 22 22 22 21 21 20 20 21 21 22 22 21 22 24 26 27
14 13 13 13 13 12 12 12 12 11 11 12 12 12 13 14 14 14 14 14 15 15 15 15 15 15 16 16 16 16 16 16 16 16 16 17 17 17 17 17 17 17 18 18 19 19 20 21 21 22 23 23 24 24 25 25 25 25 26 26 27 27 27 28 28 27 26 25 23 22 21 22 23 22 22 21 21 22 22 22 21 21 22 24 26 26 27
15 14 14 13 13 13 12 12 12 12 12 12 12 12 13 13 14 15 15 15 15 15 15 15 15 15 14 15 15 15 16 16 16 17 17 16 17 16 16 17 17 17 18 18 18 19 20 21 22 22 23 23 24 24 24 24 25 25 26 26 27 27 28 28 28 28 26 25 23 22 21 21 22 23 22 21 20 21 22 22 21 22 23 25 27 28 28
16 15 15 14 13 13 13 13 13 13 13 13 13 13 13 13 14 14 15 15 16 16 15 15 15 15 15 15 15 16 16 16 16 16 17 17 17 17 17 17 17 17 17 18 18 19 20 21 22 22 23 23 23 24 24 24 24 25 25 26 27 27 28 28 28 27 26 25 23 22 21 21 22 22 22 21 20 20 21 21 21 22 24 26 28 28 29
16 16 15 15 14 13 13 13 13 13 13 13 13 13 13 14 14 14 15 16 16 16 16 15 15 15 15 16 16 16 16 16 16 16 16 17 17 17 17 17 17 17 18 18 19 19 20 21 22 23 23 23 23 23 24 24 25 25 25 26 27 28 29 29 28 27 26 25 24 23 22 22 22 22 22 22 22 22 21 21 22 23 25 26 28 28 27
16 16 16 16 15 14 13 13 13 13 13 14 14 13 14 14 14 15 15 16 16 16 16 16 16 16 16 16 16 17 17 16 16 16 17 17 18 17 17 17 17 18 18 19 19 20 20 21 22 22 23 23 23 24 24 24 25 25 26 27 28 29 29 29 28 26 25 24 24 23 23 22 22 21 21 22 22 22 22 22 23 24 25 26 26 27 27
17 17 17 16 16 15 14 13 13 13 13 14 14 14 14 14 15 15 15 15 16 16 16 15 16 16 16 16 16 17 17 17 17 17 18 18 18 18 17 17 17 17 18 18 19 19 20 21 22 22 23 23 23 24 24 24 24 25 26 27 28 29 30 29 28 26 24 23 22 22 22 22 21 21 21 22 22 22 22 22 22 24 25 25 25 26 28
18 18 17 17 16 16 15 14 14 13 13 14 14 14 14 14 15 15 15 15 16 16 16 15 16 16 16 16 16 17 17 17 18 18 18 18 18 18 17 17 18 18 18 18 19 20 20 21 22 23 23 23 23 24 24 23 24 25 27 28 29 30 30 29 28 26 24 23 22 21 21 21 20 20 21 22 22 22 22 22 22 23 23 24 25 27 29
19 19 18 17 17 16 15 15 14 14 14 14 14 14 14 15 15 15 15 15 15 15 16 16 16 17 16 16 16 16 16 17 18 18 18 18 18 17 18 18 19 19 19 19 20 20 21 22 22 23 23 23 24 24 23 24 25 26 27 29 30 30 29 28 27 25 23 22 21 20 20 20 20 19 20 21 21 21 22 23 23 22 23 24 26 29 31
20 19 19 18 18 17 16 16 15 15 14 14 14 15 15 15 15 15 15 15 15 15 16 16 17 17 17 17 16 16 16 17 17 17 18 18 17 17 18 18 19 19 19 19 19 20 21 22 23 23 23 23 23 23 23 24 25 26 27 29 29 29 28 27 25 24 23 22 21 20 20 20 19 19 19 20 21 21 21 22 22 22 23 25 28 30 33
20 20 19 19 19 18 17 17 16 15 15 15 14 15 15 15 15 15 14 14 14 15 15 16 17 17 17 16 16 16 16 17 17 17 17 17 17 18 18 18 19 19 19 19 19 20 20 21 22 23 23 23 22 22 23 23 24 26 28 29 28 27 26 25 24 23 22 21 21 20 19 19 19 19 19 20 20 21 21 22 22 23 24 26 28 31 33
20 20 20 20 20 19 18 17 16 16 15 15 15 15 15 15 15 14 14 14 14 15 15 16 16 16 16 17 17 17 16 16 16 16 16 16 17 17 18 18 18 19 19 19 19 20 20 21 22 23 23 22 22 22 22 23 25 26 28 28 27 25 23 22 21 21 21 21 20 20 19 19 20 20 19 19 20 21 22 22 23 24 26 27 29 31 34
19 19 19 19 20 19 18 18 17 17 16 15 15 15 14 14 15 14 14 14 14 14 15 15 15 16 16 17 17 16 16 15 15 15 15 16 16 17 17 18 18 18 19 19 18 19 21 21 22 22 22 22 22 22 22 24 25 26 27 26 24 22 20 20 19 19 19 19 19 20 20 20 19 20 20 20 20 21 22 23 24 25 26 27 29 31 33
19 19 19 19 19 19 19 18 18 17 16 15 15 15 14 14 14 14 14 14 14 14 14 14 15 15 15 15 15 14 14 14 14 14 14 15 16 16 16 17 17 18 18 18 17 18 20 21 21 22 22 22 22 22 23 24 25 26 25 23 21 19 18 18 17 17 18 18 19 20 20 20 19 19 19 19 19 20 21 22 23 24 25 26 29 31 33
19 19 19 19 19 19 19 18 18 18 17 16 15 15 14 14 14 14 14 14 14 14 14 14 13 13 13 13 13 13 13 13 13 13 14 15 16 16 16 16 16 17 17 16 17 18 19 21 21 22 22 22 22 22 23 24 25 24 22 20 18 17 16 17 17 17 17 18 19 20 20 20 19 18 18 18 18 19 19 20 22 23 24 25 28 31 32
20 20 20 20 20 20 19 19 19 18 17 17 16 15 15 14 14 14 14 14 14 13 13 12 12 11 11 12 12 13 13 13 13 13 14 14 15 16 16 16 16 16 16 16 17 18 19 20 21 21 21 22 22 22 23 24 24 23 20 18 17 16 16 17 18 18 18 18 19 20 20 20 20 19 18 17 17 18 19 20 21 23 23 25 27 30 31
22 21 20 20 20 20 20 20 19 18 18 17 17 16 15 15 15 15 15 14 14 13 12 12 11 11 11 11 12 12 13 13 13 14 15 15 15 16 16 16 16 16 16 16 17 18 19 20 21 21 21 21 21 22 23 24 23 21 19 17 17 17 17 18 19 19 20 20 20 20 20 20 20 20 18 17 17 18 19 20 21 22 23 24 27 29 29
23 22 22 21 20 20 20 20 20 19 18 18 17 17 16 16 16 16 16 15 14 14 13 12 12 12 12 12 13 13 13 14 14 15 16 15 16 16 16 15 16 17 17 17 18 19 20 20 21 21 21 21 21 22 22 23 22 20 19 18 17 17 18 19 20 20 20 20 20 21 20 20 20 19 18 16 16 17 18 20 21 22 23 24 27 28 28
25 24 23 22 21 21 21 21 20 20 19 17 17 16 16 16 16 17 17 16 17 16 14 13 13 13 13 14 14 14 15 15 16 16 16 16 16 16 16 16 16 17 17 18 18 19 20 21 21 21 21 21 21 22 22 21 20 19 19 19 19 18 18 19 20 20 20 20 20 21 20 19 19 18 18 16 16 16 17 18 20 21 22 23 26 27 27
26 25 24 24 23 22 22 22 21 20 19 17 16 16 15 16 17 18 19 19 19 17 15 14 15 15 15 15 15 16 16 16 16 16 16 16 15 15 16 16 16 16 17 18 19 20 20 20 20 20 21 21 22 22 21 20 20 19 18 19 19 19 19 19 20 20 20 20 20 20 20 19 18 17 17 16 16 16 16 18 19 20 20 22 24 26 26
28 27 26 25 24 23 23 23 22 20 19 17 16 16 16 17 18 20 20 21 19 18 16 16 17 17 17 16 17 17 17 17 16 16 15 15 15 15 16 16 16 17 18 19 20 20 20 20 20 20 21 22 22 22 21 21 20 19 19 19 19 20 20 20 20 20 19 20 20 19 19 19 17 16 16 16 16 15 16 17 18 19 19 21 22 24 25
30 29 28 27 26 25 24 24 22 21 20 18 18 17 18 18 19 20 21 21 20 19 18 18 18 18 18 18 18 17 17 17 16 16 15 15 16 16 16 16 16 17 18 19 20 20 19 19 19 20 21 21 22 22 22 21 21 21 20 20 20 20 20 20 20 20 19 19 19 19 18 18 17 16 16 16 16 15 15 17 17 18 18 20 21 23 24
32 30 29 28 27 26 26 25 24 22 21 20 19 19 19 20 20 21 22 22 22 20 20 19 19 19 19 18 18 18 17 16 16 16 16 16 16 16 16 16 16 17 18 19 19 20 19 19 19 19 20 21 21 22 22 21 21 21 21 21 21 21 20 20 20 20 19 18 18 18 18 17 16 16 16 16 16 15 15 16 16 16 17 19 20 21 22
33 32 30 29 29 28 27 26 25 23 22 21 21 20 20 20 20 22 23 23 22 21 20 20 20 20 19 19 18 18 17 17 17 16 16 16 16 16 16 16 16 17 18 18 19 19 19 19 19 19 20 20 21 21 21 22 21 21 21 22 22 22 21 20 20 20 19 18 18 18 17 17 16 15 16 16 16 15 14 15 16 15 16 17 19 20 20
35 33 32 31 31 30 29 28 26 25 23 23 22 21 21 21 21 22 23 23 22 22 22 21 21 20 20 19 19 18 18 18 18 17 16 16 17 17 16 16 16 17 18 18 18 19 19 19 19 19 20 20 20 20 21 21 21 21 21 22 22 22 21 20 20 20 19 18 18 18 17 16 15 15 15 16 16 16 15 14 14 14 15 16 17 18 18
35 33 33 33 32 32 31 30 28 26 25 24 23 23 22 22 22 22 23 23 23 23 23 22 21 21 20 20 20 20 19 19 19 19 18 17 17 17 17 16 17 17 17 18 18 18 19 20 20 20 20 20 20 20 20 21 21 20 20 21 22 22 21 19 19 19 19 18 18 17 17 16 15 15 15 16 16 16 16 15 14 14 14 15 16 17 17
Wind_Direction
270 241 230 230 221 209 200 195 195 193 180 166 180 197 198 199 201 204 209 211 206 209 213 207 204 206 207 210 220 229 238 229 205 197 199 197 190 185 189 196 201 203 207 218 226 230 238 248 253 258 265 274 284 290 293 295 294 289 288 286 286 288 285 281 280 279 275 271 268 272 275 276 276 274 271 271 271 271 271 269 267 265 266 268 268 268 268
268 241 230 230 222 212 203 199 198 197 189 174 173 196 203 204 207 209 211 211 206 206 209 207 202 202 204 210 221 228 229 223 208 199 200 205 206 203 202 209 222 229 231 234 241 248 256 262 267 272 276 280 284 287 290 293 295 295 294 295 296 294 291 288 282 276 275 276 277 278 278 276 274 273 273 272 271 272 272 271 269 266 265 266 267 268 268
267 242 231 230 224 215 207 204 204 204 202 194 185 194 207 208 210 213 214 213 210 205 202 200 196 193 197 202 211 219 216 209 205 202 203 208 214 217 216 216 225 236 243 248 249 251 255 261 268 274 279 285 291 295 298 300 301 302 301 301 300 296 294 292 286 278 273 273 275 278 281 282 280 278 275 273 272 272 271 271 271 271 269 267 267 268 268
265 244 233 231 225 217 211 207 208 209 211 211 205 205 215 214 213 216 216 214 213 208 200 196 191 188 190 188 188 205 212 205 201 201 202 205 209 216 221 223 227 234 243 251 257 261 264 268 274 279 283 289 294 296 296 297 297 298 299 299 297 295 294 292 288 285 281 277 274 273 275 279 282 282 281 279 277 273 271 269 269 271 271 269 268 267 267
263 245 235 231 226 219 214 211 210 212 215 219 219 216 221 223 220 220 219 215 213 211 205 199 193 190 192 188 183 195 209 208 203 202 204 204 205 212 220 226 231 235 240 247 255 264 274 280 286 290 294 296 295 293 293 294 295 298 302 302 302 301 300 298 294 290 286 282 279 276 272 271 272 274 275 276 276 275 272 270 268 268 268 268 268 268 267
262 246 236 232 227 221 217 214 213 213 216 221 224 223 223 226 225 223 223 218 212 209 207 203 199 196 197 198 196 199 210 218 218 216 216 216 215 218 222 229 236 241 246 251 255 263 272 280 286 292 296 297 297 298 299 302 305 308 309 308 307 305 303 302 299 297 295 293 291 289 287 285 283 282 280 279 277 274 272 269 267 265 264 265 266 267 266
260 246 237 233 228 222 218 216 215 215 216 219 223 225 226 227 226 225 224 221 214 210 208 206 204 202 203 205 203 201 206 217 227 231 230 230 230 230 233 236 242 248 253 258 261 265 270 276 282 288 291 295 299 303 308 311 312 312 311 308 307 304 302 300 299 298 298 299 299 299 299 299 298 296 295 294 291 287 281 275 269 265 262 262 262 263 264
257 246 239 234 229 223 219 217 216 216 217 218 221 224 227 228 227 223 221 219 215 212 211 210 210 211 212 212 208 206 208 214 224 231 233 233 235 239 242 242 242 246 251 257 263 269 273 276 281 285 289 295 300 305 310 313 313 312 309 306 305 303 302 303 302 301 301 302 302 302 302 302 303 302 302 301 300 297 293 287 279 272 267 264 263 262 262
253 244 240 236 230 224 220 218 217 216 217 218 221 224 226 227 226 222 219 217 214 213 213 214 218 221 222 221 216 212 213 216 222 229 232 234 235 238 240 240 239 241 246 253 259 266 271 276 281 285 289 294 300 304 309 310 309 308 307 306 306 306 305 306 306 305 305 305 305 306 306 307 307 306 306 305 303 300 297 294 289 282 274 268 265 264 262
250 243 241 238 232 225 220 219 217 216 216 218 221 223 224 225 223 219 218 216 213 211 210 212 219 224 224 222 218 213 213 216 221 226 230 233 233 231 232 236 238 242 247 252 257 262 269 275 280 284 289 295 300 303 305 305 305 305 305 305 305 305 304 305 305 304 304 305 306 307 309 309 308 307 306 304 302 300 298 296 294 290 283 275 268 265 263
247 243 242 240 234 227 222 219 217 215 216 218 221 223 222 221 220 216 216 215 212 211 209 209 214 219 219 218 215 212 212 215 219 222 227 232 230 225 226 232 238 244 249 255 259 264 269 273 277 283 288 293 297 299 301 302 302 303 303 302 302 301 301 300 301 302 304 306 307 308 309 309 308 307 306 303 301 298 297 296 295 293 289 282 273 268 265
247 243 243 241 237 229 223 220 218 216 216 218 220 221 220 219 217 214 214 213 209 207 208 211 215 219 220 221 218 213 210 209 212 218 227 232 232 227 228 235 242 247 251 255 260 264 268 272 276 281 286 290 293 296 298 300 300 300 300 299 298 297 296 297 298 301 305 306 307 308 309 309 308 307 305 303 300 298 298 297 295 293 291 288 281 275 271
249 245 244 243 239 232 224 221 219 217 217 218 219 219 218 217 216 213 211 210 206 205 210 215 220 223 226 228 224 215 208 205 207 216 226 235 239 240 242 246 250 253 256 258 262 266 270 273 277 282 285 289 293 297 299 300 299 298 297 295 294 295 295 297 299 302 304 306 307 309 311 311 310 309 306 303 300 300 301 300 298 297 295 292 289 285 280
253 247 245 244 241 235 227 222 220 219 219 219 219 218 217 216 216 212 210 208 206 209 216 221 225 226 228 230 227 218 208 206 212 219 228 239 248 254 257 258 259 262 263 266 268 271 274 277 281 284 287 291 295 298 300 300 299 297 294 293 293 294 297 299 301 302 304 307 309 311 313 313 312 309 305 303 302 303 304 302 300 299 297 294 293 292 289
257 250 247 244 242 239 232 225 221 220 220 220 219 218 216 216 216 213 211 210 210 214 220 224 226 226 225 227 228 223 214 213 219 226 233 242 251 257 261 266 270 273 275 276 277 279 280 282 284 286 289 293 296 298 300 300 298 296 295 295 296 298 299 301 303 304 306 309 311 314 315 315 313 310 307 305 304 304 304 303 301 301 299 297 295 293 292
260 252 248 245 242 240 236 229 223 221 221 220 220 218 216 216 216 214 212 212 214 216 220 223 224 223 223 222 225 226 225 225 229 235 241 248 254 259 262 266 272 276 278 279 280 281 283 284 285 287 290 293 295 297 299 299 298 297 298 299 300 301 302 304 306 307 309 311 313 316 316 315 313 310 307 304 304 305 304 302 302 302 300 299 298 296 295
263 256 251 247 243 241 239 233 226 222 221 221 220 219 217 217 218 217 214 214 215 217 219 221 222 223 222 221 221 225 231 235 239 245 250 256 260 263 267 270 272 274 275 276 277 278 280 282 283 285 288 292 295 297 299 299 299 299 300 301 302 303 305 307 308 310 311 313 315 317 316 315 312 309 305 303 302 303 302 301 301 301 301 302 302 301 300
263 259 255 251 245 242 240 236 230 224 221 220 220 219 218 218 219 220 218 216 217 218 220 222 223 224 225 225 225 228 234 240 245 250 255 259 263 267 273 276 278 277 276 276 277 279 280 282 285 287 290 294 297 299 300 300 301 301 302 303 304 306 307 309 310 311 312 314 316 317 316 314 312 307 303 301 300 300 299 298 298 300 302 304 305 304 304
262 258 257 254 248 243 240 238 233 228 224 221 219 219 220 220 221 221 221 220 220 220 222 223 225 227 228 230 231 231 235 241 246 251 256 261 267 272 277 280 281 280 280 279 279 280 281 283 285 289 292 296 298 300 300 301 301 302 302 303 305 306 308 309 311 312 313 315 316 316 315 313 311 307 302 299 298 298 297 297 298 300 302 304 305 305 306
261 256 255 256 252 246 242 239 235 231 228 224 221 219 221 223 223 223 223 223 223 224 225 226 228 230 232 234 236 236 238 242 246 251 256 261 267 272 275 277 278 278 279 278 277 277 279 281 284 288 292 296 298 299 300 300 300 300 301 303 305 307 308 310 312 313 314 315 317 316 314 312 309 305 300 297 296 296 296 297 298 300 302 305 306 307 308
261 255 253 253 254 250 244 241 238 234 231 228 224 221 221 224 226 226 225 225 225 227 228 229 231 233 235 237 240 242 244 247 250 253 257 261 266 270 273 274 275 275 276 276 276 277 280 283 285 289 292 296 298 299 299 299 299 299 301 304 306 308 310 311 313 314 315 316 317 316 314 310 306 301 297 295 295 296 297 298 299 301 303 306 307 307 307
261 256 251 250 252 252 248 244 241 237 234 231 228 225 223 224 227 228 228 227 228 229 230 231 233 235 237 240 243 245 248 251 254 256 260 264 267 270 273 275 275 275 275 276 277 279 281 284 286 290 294 297 298 298 298 298 298 300 302 305 307 309 311 312 313 314 315 316 317 316 313 309 303 298 295 293 293 295 296 297 298 300 301 302 303 303 302
262 257 251 248 248 250 250 246 242 240 238 235 232 229 228 227 229 230 231 231 231 232 232 233 235 237 240 242 244 247 249 253 256 258 261 264 266 269 271 273 275 275 276 276 278 279 281 284 288 292 296 298 299 299 299 299 299 301 303 305 308 310 312 313 314 315 316 317 317 315 312 307 301 297 293 293 294 294 294 295 295 296 296 297 298 299 299
261 257 252 248 246 247 248 247 243 241 240 238 235 233 231 230 231 232 233 235 235 236 236 236 237 239 242 244 246 249 251 254 257 260 262 265 266 268 269 271 273 274 275 277 278 280 283 287 291 294 297 299 300 300 300 300 301 302 305 307 309 311 312 313 315 316 317 318 317 314 309 304 299 295 293 293 294 292 291 291 293 295 296 297 298 298 299
260 257 252 248 245 245 247 247 244 241 240 240 238 237 235 233 233 234 235 237 238 239 239 240 241 242 245 247 249 251 253 255 258 261 263 265 267 268 269 270 271 273 275 277 279 282 285 288 292 295 298 299 300 300 300 302 303 304 306 308 310 312 313 315 316 317 318 317 315 311 305 300 298 296 295 296 296 294 294 294 296 298 298 299 300 302 303
257 257 253 248 245 244 245 246 245 243 241 240 240 239 238 237 235 235 236 237 238 240 241 242 242 244 246 248 250 252 254 256 258 260 262 264 266 267 269 270 271 273 275 277 280 282 285 288 292 295 298 299 300 300 301 302 303 304 306 308 310 313 315 317 317 318 318 316 313 308 302 298 297 296 297 298 298 297 298 299 301 303 303 305 308 310 309
254 256 254 250 245 243 244 245 245 243 242 242 241 239 239 239 237 237 237 237 239 242 243 243 243 243 245 248 250 252 254 256 258 259 261 262 264 266 268 270 272 273 275 277 280 283 286 289 293 296 298 299 301 301 302 303 304 305 307 309 311 314 317 318 318 318 317 316 312 307 302 298 297 298 299 301 303 304 304 304 305 304 304 307 311 313 311
250 253 254 251 247 244 243 244 244 243 242 243 242 240 239 239 240 240 239 239 241 243 244 244 244 244 246 249 251 253 255 256 258 259 260 262 264 265 267 269 271 273 275 278 280 284 287 291 294 296 298 300 301 302 303 303 304 305 307 309 312 316 318 318 318 318 317 315 311 306 301 298 298 298 299 302 306 309 309 308 307 305 304 306 310 311 310
246 249 252 252 250 247 244 244 245 244 242 243 244 242 240 240 241 242 242 242 243 244 245 246 247 247 248 251 252 254 256 257 259 261 263 264 265 266 268 269 271 273 276 279 282 285 288 291 294 297 299 301 302 302 304 304 305 306 308 310 314 317 319 319 319 318 315 313 311 306 300 297 296 296 298 300 303 306 308 309 308 305 304 307 310 311 310
244 246 249 251 251 249 247 246 246 246 244 243 244 244 243 241 241 241 243 244 245 246 247 248 250 251 251 252 253 254 256 258 260 262 264 266 268 268 270 272 274 276 279 281 283 287 289 293 296 298 300 302 303 304 305 305 305 306 309 312 316 318 319 319 318 316 314 312 309 305 301 298 297 296 297 297 299 301 304 307 307 305 305 308 310 310 310
243 243 246 248 250 250 249 247 247 248 247 246 245 246 246 245 243 241 243 245 246 248 249 250 252 253 254 254 255 257 258 259 261 263 265 267 269 271 272 275 277 279 281 284 286 289 292 295 298 300 302 304 305 305 305 305 305 307 311 314 317 318 318 318 317 315 312 310 308 305 303 301 299 298 297 296 295 297 302 305 307 306 307 308 309 309 309
243 242 243 245 247 249 250 249 249 250 250 250 249 248 248 248 246 245 245 246 248 250 251 253 254 255 255 256 257 258 260 261 262 263 264 266 268 271 274 276 279 281 283 285 288 291 293 296 299 301 304 306 306 306 306 305 307 310 313 315 316 318 319 318 317 314 311 308 306 304 303 302 301 298 296 295 295 296 300 303 305 305 306 307 309 310 312
242 242 242 243 246 248 249 250 250 252 252 253 252 251 250 250 250 250 250 249 250 252 253 254 256 256 257 259 260 261 262 264 264 265 266 268 270 273 275 277 279 280 282 284 288 292 295 298 301 303 305 306 306 305 305 306 308 310 312 314 316 318 319 318 316 314 311 307 304 302 301 302 302 301 299 297 296 296 296 298 300 302 305 308 311 312 315
240 240 241 242 244 247 249 250 252 253 253 253 253 253 252 252 252 252 253 253 254 255 256 256 257 258 258 259 260 261 263 265 266 268 271 273 275 278 280 282 282 283 285 289 293 296 299 301 303 304 306 307 306 305 306 308 310 311 313 316 318 319 319 318 316 313 311 308 305 302 302 301 301 300 298 297 296 296 296 296 298 302 306 311 315 317 317
239 239 240 241 244 247 249 251 252 253 253 253 253 253 253 252 252 252 253 254 256 257 257 257 258 259 260 260 261 262 264 266 268 270 273 276 279 281 284 285 287 289 292 294 297 299 301 303 304 305 307 307 306 306 308 310 311 313 315 317 319 319 318 317 315 314 313 311 309 307 306 304 301 298 296 295 296 297 297 297 300 304 308 315 320 322 321
239 239 240 241 244 247 249 251 252 254 254 254 253 252 252 252 253 253 253 253 255 256 257 258 259 260 261 262 263 263 264 265 267 270 273 277 279 281 282 283 285 287 290 293 295 298 301 302 304 305 305 305 304 306 307 309 311 313 315 317 319 320 318 318 317 316 315 314 313 310 308 306 305 304 301 299 299 298 296 297 302 308 313 317 321 322 321
240 240 240 242 244 246 248 249 251 252 253 253 252 251 251 251 252 253 254 255 255 255 256 258 259 261 262 263 263 262 261 263 266 269 272 274 276 277 279 280 282 284 288 291 293 297 299 302 303 303 303 302 303 305 307 309 311 314 316 318 320 321 320 320 319 317 316 317 316 314 311 309 308 307 305 302 300 299 300 303 309 314 316 317 319 320 321
240 240 240 241 243 244 246 247 248 249 249 250 251 251 251 252 252 253 253 254 255 255 256 257 258 260 261 261 261 261 262 264 267 269 271 272 274 275 277 280 282 286 289 292 296 299 302 303 304 302 302 303 305 307 309 311 313 315 318 320 322 323 323 323 322 318 317 318 318 317 315 313 311 310 308 306 304 303 305 309 313 315 316 317 319 321 322
240 240 240 241 242 244 244 244 245 245 246 248 249 251 251 251 252 252 253 253 254 254 254 255 256 257 259 260 263 265 267 268 268 269 270 271 272 274 276 280 284 287 291 295 300 303 304 304 303 301 301 304 306 307 309 312 315 317 320 322 324 326 327 326 324 321 319 318 317 315 314 313 311 309 306 304 303 302 305 308 312 314 317 318 320 323 324
240 240 240 240 241 242 243 242 243 244 246 247 248 249 250 250 250 250 252 253 254 254 253 253 254 256 258 261 264 266 267 268 268 268 268 270 272 274 276 280 283 287 290 296 302 303 302 302 301 300 302 304 306 308 312 315 317 319 321 323 326 328 328 326 324 322 318 315 313 312 311 310 309 304 299 296 295 296 300 305 311 315 319 320 322 325 327
241 240 240 240 241 241 242 241 241 243 246 247 247 246 247 247 247 247 248 250 252 253 254 255 257 258 260 262 264 264 265 265 266 266 267 269 272 275 277 280 283 286 291 296 300 301 301 300 300 300 303 305 306 310 315 317 318 320 322 324 325 326 325 322 320 318 316 313 311 311 310 309 308 304 299 294 292 293 297 305 313 318 320 322 325 328 330
240 241 241 240 240 240 241 241 241 243 245 246 245 244 243 243 244 245 246 247 248 250 252 255 258 259 261 262 264 265 266 267 268 269 269 271 273 276 279 281 284 287 291 296 299 300 301 301 301 302 303 305 308 314 317 318 318 320 322 322 321 320 318 316 315 315 315 314 313 312 310 308 307 306 302 298 296 296 301 309 316 320 321 324 327 330 332
240 240 241 241 240 241 241 242 242 243 244 244 243 242 241 240 241 243 245 247 248 250 253 256 258 260 261 262 263 265 268 270 272 273 274 274 274 275 278 280 283 288 292 297 299 300 301 301 301 302 303 306 310 315 316 316 317 320 321 320 317 315 313 312 312 313 315 314 313 311 309 307 307 306 303 300 298 300 305 313 318 321 324 327 329 332 334
238 239 240 241 241 241 241 241 241 242 243 242 241 241 240 239 241 244 247 250 251 253 255 257 259 260 260 261 263 266 270 273 274 275 275 276 276 277 279 281 285 290 294 297 298 300 300 301 300 301 303 306 310 313 314 315 317 319 320 317 314 313 313 312 311 312 312 312 310 309 307 306 306 303 301 299 297 300 307 315 320 322 326 330 331 333 336
237 238 240 240 240 240 241 242 241 242 242 242 241 241 241 241 242 244 246 247 248 250 252 255 257 258 259 263 267 271 275 278 278 278 279 280 280 281 282 285 288 292 295 296 297 298 299 300 301 302 303 305 309 313 316 317 317 318 318 316 314 314 313 310 309 309 310 309 308 308 307 306 305 302 299 297 297 301 308 316 321 324 328 332 333 334 337
236 237 238 240 240 240 241 242 242 242 243 242 242 242 241 239 239 240 242 244 247 250 253 255 257 259 262 267 273 277 280 281 281 281 281 281 280 282 284 287 291 293 294 294 295 297 298 299 300 301 303 306 310 315 317 317 317 317 315 313 312 312 311 309 308 310 310 309 308 308 307 306 304 302 298 296 297 302 309 315 320 325 329 333 334 335 337
236 236 237 238 239 239 240 242 243 243 243 242 240 239 239 237 236 237 240 244 248 251 253 255 257 260 264 268 273 276 279 281 280 280 280 280 281 283 286 289 293 294 293 292 294 296 298 299 300 301 304 307 312 315 318 317 316 316 315 313 311 310 310 310 311 311 311 310 309 308 307 306 304 300 296 294 295 301 307 314 320 325 329 332 334 335 337
235 235 236 238 239 239 240 241 242 242 241 240 238 237 237 237 235 236 238 242 245 247 249 252 255 260 264 268 272 274 276 277 278 279 281 283 285 287 290 292 293 292 290 291 293 295 296 298 299 301 304 308 311 314 315 315 315 315 315 314 312 311 311 312 312 312 312 312 310 308 306 304 301 297 292 290 292 298 305 313 319 324 328 331 332 334 338
235 235 236 237 239 239 239 240 241 241 241 240 239 237 238 238 237 237 239 242 244 245 247 249 253 257 262 267 271 273 273 275 277 280 283 287 289 291 293 294 292 289 287 289 292 294 296 298 299 300 303 306 308 311 312 312 313 314 315 313 311 311 312 313 312 312 312 312 311 308 306 304 300 295 290 288 291 296 303 312 318 323 326 329 330 332 336
234 235 235 236 238 239 239 239 240 240 240 240 240 239 239 240 240 240 241 244 246 248 249 251 252 256 260 263 266 268 271 274 277 280 285 288 290 292 294 294 291 289 288 289 292 295 297 298 298 299 301 304 306 308 309 310 311 313 312 310 310 311 312 312 311 311 311 312 310 308 306 303 300 296 291 289 291 295 300 309 317 322 323 325 326 328 333
234 234 235 236 238 239 240 240 239 239 239 240 240 240 240 240 241 241 244 246 249 250 251 252 254 257 260 262 263 265 268 272 276 281 285 287 289 292 293 292 291 291 291 292 294 296 297 298 298 299 301 303 305 306 307 308 309 310 309 309 309 309 310 310 309 308 310 311 310 308 305 302 299 296 292 290 291 293 296 303 313 319 320 319 321 324 330
232 233 234 235 236 238 239 239 239 238 238 238 239 239 239 240 241 242 244 246 248 249 251 253 255 257 259 260 261 263 265 269 274 278 282 285 287 291 293 294 293 293 292 293 294 296 297 298 299 300 301 303 305 306 306 306 307 307 308 308 307 307 308 308 308 307 308 309 308 306 304 301 298 294 292 290 290 291 292 297 307 315 317 316 317 321 326
Height
5851 5852 5852 5853 5853 5855 5856 5857 5858 5859 5859 5860 5860 5861 5861 5862 5862 5863 5863 5864 5865 5867 5868 5869 5870 5871 5872 5873 5874 5875 5876 5877 5878 5879 5881 5882 5883 5883 5884 5884 5884 5884 5885 5886 5886 5887 5887 5888 5888 5888 5889 5889 5890 5890 5890 5891 5891 5891 5891 5891 5891 5890 5890 5890 5890 5888 5885 5884 5884 5884 5884 5885 5885 5885 5885 5884 5884 5884 5884 5884 5883 5883 5883 5882 5881 5881 5881
5850 5850 5851 5851 5852 5853 5855 5856 5857 5858 5859 5859 5860 5860 5861 5861 5862 5862 5863 5864 5865 5866 5867 5869 5870 5871 5872 5873 5874 5875 5876 5877 5878 5879 5880 5881 5882 5883 5883 5883 5883 5883 5884 5885 5885 5885 5885 5886 5886 5886 5887 5887 5888 5888 5888 5889 5889 5889 5889 5889 5889 5888 5888 5888 5888 5887 5884 5883 5882 5882 5881 5882 5882 5882 5882 5881 5881 5880 5880 5880 5879 5880 5880 5879 5878 5877 5877
5849 5849 5849 5850 5851 5852 5853 5855 5856 5857 5858 5858 5859 5860 5860 5860 5861 5862 5863 5864 5865 5866 5867 5869 5870 5871 5873 5874 5874 5875 5876 5876 5877 5878 5878 5880 5881 5882 5882 5883 5883 5883 5883 5884 5884 5884 5884 5884 5884 5885 5885 5885 5886 5886 5886 5886 5886 5886 5886 5886 5886 5886 5886 5885 5885 5884 5884 5882 5882 5880 5879 5878 5879 5879 5879 5878 5878 5877 5877 5876 5875 5874 5875 5875 5874 5872 5872
5847 5847 5848 5849 5849 5850 5852 5853 5854 5856 5857 5857 5858 5859 5859 5860 5860 5861 5862 5863 5865 5866 5867 5868 5870 5871 5872 5873 5874 5875 5875 5876 5876 5877 5877 5878 5879 5880 5881 5882 5882 5882 5882 5882 5882 5883 5883 5883 5883 5883 5884 5884 5884 5884 5885 5885 5885 5884 5884 5884 5884 5884 5883 5883 5882 5881 5881 5880 5880 5880 5878 5877 5876 5875 5875 5874 5874 5874 5873 5872 5871 5870 5869 5868 5867 5867 5867
5846 5846 5846 5847 5848 5849 5850 5852 5853 5854 5855 5856 5857 5858 5859 5859 5859 5860 5861 5863 5864 5866 5867 5868 5869 5870 5872 5873 5874 5874 5875 5875 5875 5876 5876 5877 5878 5879 5880 5880 5881 5881 5881 5881 5881 5881 5881 5881 5881 5882 5882 5882 5883 5883 5883 5883 5883 5883 5883 5883 5882 5882 5881 5880 5879 5878 5877 5877 5877 5876 5876 5875 5874 5873 5872 5871 5870 5870 5869 5868 5867 5865 5864 5862 5861 5862 5862
5844 5845 5845 5846 5846 5847 5848 5850 5851 5853 5854 5855 5855 5857 5857 5858 5858 5859 5860 5862 5863 5865 5866 5867 5869 5870 5871 5872 5873 5874 5874 5874 5874 5875 5876 5877 5878 5878 5879 5879 5879 5880 5880 5880 5880 5880 5880 5880 5880 5880 5880 5880 5880 5880 5881 5881 5881 5881 5881 5880 5879 5879 5877 5876 5875 5873 5873 5873 5873 5872 5871 5871 5870 5869 5868 5867 5867 5866 5865 5864 5862 5861 5859 5857 5855 5856 5856
5843 5843 5844 5844 5845 5846 5847 5848 5849 5851 5852 5853 5854 5855 5856 5857 5857 5858 5859 5861 5862 5864 5865 5866 5868 5869 5870 5871 5872 5873 5873 5873 5873 5873 5874 5875 5876 5877 5877 5878 5878 5878 5879 5879 5879 5879 5879 5879 5878 5878 5878 5877 5877 5878 5878 5879 5879 5879 5878 5877 5877 5876 5874 5873 5872 5870 5870 5869 5869 5868 5867 5866 5865 5864 5863 5861 5861 5860 5859 5858 5857 5855 5854 5851 5850 5851 5850
5842 5842 5842 5843 5843 5844 5845 5846 5848 5849 5850 5851 5852 5853 5854 5856 5856 5857 5858 5859 5861 5862 5864 5865 5866 5867 5868 5869 5870 5871 5871 5872 5871 5872 5872 5873 5874 5875 5876 5876 5877 5877 5877 5877 5877 5877 5877 5877 5877 5876 5876 5875 5876 5876 5876 5876 5876 5876 5875 5874 5873 5873 5871 5870 5869 5868 5867 5866 5865 5864 5863 5862 5860 5858 5857 5855 5853 5852 5850 5850 5849 5848 5848 5846 5845 5845 5844
5840 5841 5841 5841 5842 5843 5843 5844 5846 5847 5849 5850 5850 5852 5853 5854 5855 5856 5857 5858 5859 5861 5862 5863 5864 5865 5866 5867 5868 5868 5869 5869 5870 5870 5871 5872 5873 5874 5874 5875 5875 5875 5876 5876 5876 5875 5875 5875 5875 5874 5874 5874 5875 5875 5874 5874 5873 5872 5872 5871 5870 5869 5868 5867 5866 5865 5863 5862 5861 5860 5858 5857 5855 5853 5851 5849 5847 5844 5843 5841 5841 5841 5841 5840 5839 5838 5837
5839 5839 5839 5840 5840 5841 5842 5843 5844 5846 5847 5848 5849 5850 5851 5852 5853 5854 5855 5856 5857 5859 5860 5861 5862 5863 5864 5865 5865 5866 5867 5868 5869 5870 5871 5871 5872 5873 5873 5873 5874 5874 5874 5874 5874 5874 5873 5873 5873 5873 5872 5873 5873 5873 5873 5872 5871 5870 5869 5868 5867 5867 5866 5865 5863 5862 5860 5859 5858 5856 5854 5852 5850 5848 5846 5844 5841 5839 5837 5835 5835 5834 5834 5834 5833 5832 5831
5837 5838 5838 5838 5839 5839 5840 5841 5842 5844 5845 5846 5847 5848 5850 5851 5852 5852 5853 5854 5856 5857 5858 5860 5860 5861 5862 5862 5863 5864 5866 5867 5868 5869 5870 5870 5870 5871 5872 5872 5873 5873 5873 5873 5872 5872 5872 5872 5872 5872 5871 5871 5871 5871 5871 5870 5869 5868 5867 5866 5865 5865 5863 5862 5861 5860 5858 5856 5854 5853 5850 5848 5846 5844 5842 5839 5837 5835 5833 5832 5830 5829 5829 5828 5828 5827 5826
5836 5837 5837 5837 5837 5838 5839 5840 5841 5842 5843 5845 5846 5847 5848 5849 5850 5851 5852 5853 5854 5855 5856 5857 5858 5859 5859 5860 5861 5863 5865 5866 5867 5868 5868 5868 5869 5870 5871 5871 5872 5872 5872 5871 5871 5871 5871 5871 5871 5870 5870 5870 5870 5870 5869 5868 5867 5866 5865 5864 5863 5862 5861 5860 5859 5857 5855 5853 5851 5849 5847 5845 5842 5840 5837 5834 5832 5831 5829 5828 5826 5825 5824 5823 5823 5822 5822
5835 5835 5836 5836 5836 5836 5837 5838 5839 5840 5842 5843 5844 5845 5846 5847 5848 5849 5850 5851 5853 5854 5854 5855 5856 5857 5858 5859 5860 5862 5863 5864 5865 5866 5866 5867 5867 5868 5869 5870 5870 5870 5870 5870 5869 5869 5869 5869 5869 5869 5868 5868 5867 5867 5867 5866 5865 5864 5863 5862 5860 5859 5859 5857 5856 5855 5853 5851 5849 5846 5844 5841 5838 5835 5833 5830 5828 5827 5826 5824 5823 5822 5820 5819 5818 5817 5817
5834 5834 5834 5834 5835 5835 5836 5836 5837 5838 5840 5841 5842 5843 5844 5845 5846 5847 5849 5850 5851 5852 5853 5854 5855 5856 5857 5858 5859 5860 5862 5863 5864 5864 5865 5865 5866 5866 5867 5868 5868 5868 5868 5868 5867 5867 5868 5867 5867 5866 5866 5865 5865 5864 5864 5863 5863 5861 5860 5859 5858 5857 5856 5854 5853 5851 5850 5847 5845 5842 5840 5837 5834 5831 5829 5827 5825 5824 5823 5821 5820 5819 5817 5816 5815 5814 5813
5833 5833 5833 5833 5833 5834 5834 5835 5836 5837 5838 5839 5840 5842 5843 5843 5844 5846 5847 5848 5849 5850 5851 5853 5854 5855 5856 5857 5858 5859 5860 5861 5862 5863 5863 5864 5864 5864 5865 5866 5866 5866 5866 5865 5865 5865 5865 5865 5864 5864 5863 5863 5862 5862 5861 5860 5859 5858 5857 5856 5855 5854 5852 5851 5849 5847 5846 5843 5841 5838 5835 5832 5830 5827 5825 5824 5823 5822 5820 5818 5817 5816 5815 5813 5812 5811 5810
5831 5832 5832 5832 5832 5832 5833 5833 5834 5835 5836 5837 5839 5840 5841 5842 5843 5844 5845 5847 5848 5849 5850 5851 5852 5853 5854 5855 5856 5857 5858 5860 5861 5861 5862 5862 5862 5862 5863 5864 5864 5864 5864 5863 5863 5863 5863 5863 5862 5862 5861 5860 5860 5859 5858 5857 5856 5855 5854 5852 5851 5850 5849 5847 5846 5844 5842 5839 5837 5834 5831 5829 5826 5824 5822 5821 5820 5819 5818 5816 5814 5813 5811 5810 5809 5808 5807
5830 5830 5830 5831 5831 5831 5831 5832 5833 5834 5835 5836 5837 5838 5839 5840 5841 5842 5844 5845 5846 5847 5849 5850 5850 5851 5852 5854 5855 5856 5857 5858 5859 5859 5860 5860 5860 5860 5861 5862 5863 5862 5862 5862 5861 5861 5861 5860 5860 5859 5859 5858 5857 5856 5855 5854 5853 5852 5851 5849 5848 5847 5845 5844 5842 5840 5838 5835 5833 5830 5828 5825 5823 5822 5820 5818 5817 5816 5815 5813 5811 5810 5808 5807 5806 5805 5804
5829 5829 5829 5829 5830 5830 5830 5831 5831 5832 5833 5834 5835 5836 5837 5838 5839 5840 5842 5843 5845 5846 5847 5848 5849 5850 5851 5852 5853 5854 5855 5856 5857 5857 5858 5858 5857 5858 5859 5860 5860 5860 5860 5860 5859 5859 5858 5858 5857 5856 5856 5855 5854 5853 5852 5851 5850 5849 5847 5846 5845 5843 5842 5840 5838 5836 5834 5832 5829 5826 5824 5822 5820 5819 5818 5816 5815 5814 5812 5811 5809 5808 5806 5804 5803 5802 5801
5827 5827 5828 5828 5828 5829 5829 5829 5830 5831 5832 5833 5834 5834 5835 5836 5837 5838 5840 5841 5843 5844 5845 5846 5847 5848 5849 5850 5851 5853 5853 5854 5855 5855 5855 5855 5855 5856 5856 5857 5857 5857 5857 5857 5857 5856 5856 5855 5855 5854 5853 5852 5851 5850 5849 5848 5847 5846 5844 5843 5842 5840 5838 5837 5835 5833 5830 5828 5826 5823 5821 5819 5818 5816 5815 5813 5812 5811 5809 5808 5807 5805 5804 5802 5801 5799 5798
5825 5826 5826 5826 5827 5827 5828 5828 5829 5829 5830 5831 5832 5833 5833 5834 5835 5837 5838 5839 5841 5842 5843 5844 5845 5846 5847 5848 5849 5850 5851 5852 5852 5853 5853 5853 5854 5854 5854 5854 5854 5854 5854 5854 5854 5854 5854 5853 5853 5852 5851 5850 5849 5848 5847 5846 5845 5843 5842 5840 5839 5837 5835 5833 5831 5829 5827 5825 5822 5820 5818 5816 5815 5814 5812 5810 5809 5808 5807 5806 5804 5803 5801 5800 5798 5797 5795
5824 5824 5824 5825 5825 5826 5826 5827 5827 5828 5829 5829 5830 5831 5832 5832 5833 5835 5836 5837 5839 5840 5841 5842 5843 5844 5845 5846 5847 5848 5849 5849 5850 5851 5851 5851 5852 5852 5851 5852 5852 5852 5852 5852 5851 5851 5851 5851 5850 5849 5849 5848 5847 5846 5844 5843 5842 5841 5839 5838 5836 5834 5832 5830 5828 5826 5823 5821 5819 5817 5815 5814 5812 5811 5809 5808 5806 5805 5804 5803 5802 5800 5799 5797 5796 5794 5792
5822 5822 5823 5823 5824 5824 5825 5825 5826 5827 5827 5828 5828 5829 5830 5831 5832 5833 5834 5835 5836 5838 5839 5840 5841 5842 5843 5844 5845 5846 5846 5847 5847 5848 5848 5849 5849 5849 5849 5849 5849 5849 5849 5849 5849 5849 5848 5848 5847 5847 5846 5845 5844 5843 5842 5841 5839 5838 5837 5835 5833 5831 5829 5827 5825 5822 5820 5818 5815 5813 5812 5811 5809 5808 5807 5805 5804 5803 5802 5801 5800 5799 5797 5795 5794 5792 5790
5821 5821 5821 5822 5822 5823 5823 5824 5825 5825 5826 5826 5827 5828 5828 5829 5830 5831 5832 5833 5834 5835 5836 5838 5839 5840 5840 5841 5842 5843 5844 5844 5845 5845 5846 5846 5847 5846 5846 5846 5846 5846 5846 5846 5846 5846 5846 5845 5844 5844 5843 5842 5841 5840 5839 5838 5836 5835 5834 5832 5830 5828 5826 5824 5821 5819 5817 5815 5813 5810 5809 5807 5807 5805 5804 5803 5802 5801 5800 5799 5798 5797 5795 5794 5792 5790 5789
5819 5819 5820 5820 5820 5821 5821 5822 5823 5824 5824 5825 5826 5826 5827 5827 5828 5829 5830 5831 5832 5833 5834 5835 5836 5837 5838 5839 5840 5840 5841 5842 5842 5842 5843 5843 5844 5844 5844 5844 5843 5843 5843 5844 5843 5843 5843 5842 5842 5841 5840 5840 5838 5837 5836 5835 5833 5832 5831 5829 5827 5825 5823 5821 5819 5816 5814 5812 5809 5807 5805 5804 5804 5803 5802 5801 5800 5799 5798 5797 5796 5795 5793 5792 5790 5788 5787
5817 5818 5818 5819 5819 5819 5820 5820 5821 5822 5823 5823 5824 5825 5825 5826 5826 5827 5828 5829 5830 5831 5832 5833 5834 5835 5836 5836 5837 5838 5839 5839 5840 5840 5840 5841 5841 5841 5841 5841 5841 5841 5841 5841 5841 5840 5840 5840 5839 5838 5838 5837 5836 5834 5833 5832 5830 5829 5827 5826 5824 5822 5820 5818 5816 5813 5811 5809 5807 5804 5803 5801 5801 5800 5799 5798 5797 5796 5795 5794 5793 5792 5791 5789 5787 5786 5784
5816 5816 5817 5817 5817 5818 5818 5819 5820 5821 5821 5822 5823 5823 5824 5824 5825 5825 5826 5827 5828 5828 5829 5831 5832 5833 5833 5834 5835 5835 5836 5837 5837 5838 5838 5838 5838 5838 5838 5839 5839 5839 5839 5838 5838 5838 5837 5837 5837 5836 5835 5834 5833 5831 5830 5829 5827 5826 5824 5823 5821 5819 5817 5815 5813 5810 5808 5806 5804 5802 5800 5799 5798 5797 5796 5796 5795 5794 5792 5791 5790 5789 5788 5786 5784 5782 5780
5814 5814 5815 5815 5816 5816 5817 5817 5818 5819 5819 5820 5821 5822 5822 5823 5823 5824 5824 5825 5826 5826 5827 5829 5830 5831 5831 5832 5832 5833 5834 5834 5835 5835 5835 5836 5836 5836 5836 5836 5836 5836 5836 5836 5836 5835 5835 5834 5834 5833 5832 5831 5830 5829 5827 5826 5825 5823 5821 5820 5818 5816 5814 5812 5810 5807 5805 5803 5801 5800 5798 5796 5795 5794 5793 5793 5792 5791 5790 5789 5787 5786 5784 5783 5782 5780 5778
5812 5813 5813 5814 5814 5815 5815 5816 5816 5817 5818 5818 5819 5820 5821 5821 5822 5822 5823 5823 5824 5825 5826 5827 5828 5828 5829 5830 5830 5831 5831 5832 5832 5833 5833 5833 5834 5834 5834 5834 5834 5834 5834 5833 5833 5833 5832 5832 5831 5830 5829 5828 5827 5826 5824 5823 5822 5820 5818 5817 5815 5813 5811 5809 5806 5804 5802 5801 5799 5797 5796 5794 5793 5791 5791 5790 5789 5788 5787 5786 5785 5783 5782 5780 5779 5778 5776
5810 5811 5811 5812 5812 5813 5814 5814 5814 5815 5816 5817 5817 5818 5819 5819 5820 5820 5821 5821 5822 5823 5824 5824 5825 5826 5827 5828 5828 5829 5829 5829 5830 5830 5830 5831 5831 5831 5831 5831 5831 5831 5831 5831 5831 5830 5830 5829 5829 5828 5827 5825 5824 5823 5822 5820 5819 5817 5815 5814 5812 5810 5808 5805 5803 5801 5800 5798 5796 5795 5794 5792 5791 5789 5788 5788 5787 5786 5784 5783 5782 5781 5779 5778 5776 5774 5773
5808 5808 5809 5810 5810 5811 5812 5812 5813 5813 5814 5815 5815 5816 5817 5817 5818 5819 5819 5820 5820 5821 5822 5822 5823 5824 5825 5826 5826 5827 5827 5827 5828 5828 5828 5828 5828 5829 5829 5829 5829 5829 5829 5828 5828 5828 5827 5826 5826 5825 5824 5823 5821 5820 5819 5817 5816 5814 5812 5811 5809 5807 5805 5803 5801 5799 5797 5795 5794 5793 5791 5790 5789 5787 5786 5785 5785 5784 5783 5781 5780 5778 5776 5775 5773 5771 5769
5805 5806 5807 5808 5809 5809 5810 5811 5811 5811 5812 5813 5813 5814 5815 5815 5816 5817 5817 5818 5818 5819 5820 5820 5821 5822 5823 5823 5824 5824 5825 5825 5825 5826 5826 5826 5826 5826 5826 5826 5826 5826 5826 5826 5826 5825 5824 5824 5823 5822 5821 5820 5819 5817 5816 5814 5812 5811 5809 5808 5806 5804 5802 5800 5798 5796 5794 5793 5791 5790 5789 5788 5787 5785 5784 5783 5782 5781 5780 5779 5777 5776 5774 5772 5770 5768 5766
5803 5804 5805 5806 5806 5807 5808 5809 5809 5810 5810 5811 5812 5812 5813 5813 5814 5815 5815 5816 5816 5817 5817 5818 5819 5820 5820 5821 5821 5822 5822 5823 5823 5823 5823 5823 5823 5824 5824 5824 5824 5824 5823 5823 5823 5822 5822 5821 5820 5819 5818 5817 5816 5814 5812 5811 5809 5808 5806 5805 5803 5801 5799 5797 5795 5793 5792 5790 5789 5787 5786 5785 5784 5783 5782 5781 5779 5778 5777 5776 5775 5773 5772 5770 5768 5765 5763
5800 5801 5802 5803 5804 5805 5806 5807 5807 5808 5808 5809 5809 5810 5811 5811 5812 5813 5813 5814 5814 5815 5815 5816 5817 5817 5818 5819 5819 5819 5820 5820 5820 5820 5821 5821 5821 5821 5821 5822 5822 5821 5821 5821 5820 5820 5819 5818 5817 5816 5815 5814 5813 5811 5810 5808 5807 5805 5804 5802 5800 5798 5796 5794 5792 5791 5790 5788 5787 5786 5784 5783 5782 5780 5779 5778 5777 5776 5774 5774 5773 5771 5769 5768 5766 5763 5760
5798 5799 5800 5801 5802 5803 5804 5805 5805 5806 5806 5807 5807 5808 5809 5809 5810 5811 5811 5812 5812 5813 5813 5814 5814 5815 5816 5816 5817 5817 5817 5817 5818 5818 5818 5818 5818 5819 5819 5819 5819 5819 5818 5818 5818 5817 5816 5816 5815 5814 5813 5811 5810 5808 5807 5806 5804 5803 5801 5799 5797 5796 5793 5791 5790 5788 5787 5786 5785 5784 5783 5781 5780 5778 5777 5775 5774 5773 5772 5771 5770 5769 5767 5765 5763 5760 5758
5795 5796 5798 5799 5800 5801 5802 5803 5803 5804 5804 5805 5805 5806 5807 5807 5808 5808 5809 5810 5810 5811 5811 5812 5812 5812 5813 5814 5814 5815 5815 5815 5815 5815 5815 5816 5816 5816 5816 5816 5816 5815 5815 5815 5815 5814 5814 5813 5812 5811 5809 5808 5807 5805 5804 5803 5801 5800 5798 5797 5795 5793 5791 5789 5787 5786 5785 5784 5783 5782 5780 5779 5778 5776 5775 5773 5772 5770 5769 5768 5767 5766 5765 5763 5760 5758 5755
5793 5794 5795 5796 5797 5799 5800 5800 5801 5801 5802 5803 5803 5804 5805 5805 5806 5806 5807 5808 5808 5809 5809 5809 5810 5810 5811 5811 5812 5813 5813 5813 5813 5813 5813 5814 5814 5814 5814 5814 5813 5813 5813 5813 5813 5812 5811 5810 5809 5808 5807 5805 5804 5803 5802 5800 5799 5798 5796 5794 5792 5790 5788 5786 5785 5783 5782 5781 5780 5779 5778 5777 5775 5774 5773 5771 5769 5768 5767 5766 5764 5763 5762 5760 5758 5756 5753
5790 5791 5793 5794 5795 5796 5797 5798 5798 5799 5800 5800 5801 5802 5802 5803 5804 5804 5805 5806 5806 5807 5807 5807 5807 5808 5808 5809 5810 5810 5811 5811 5811 5811 5812 5812 5812 5812 5812 5812 5811 5811 5811 5811 5811 5810 5809 5808 5807 5805 5804 5803 5802 5801 5800 5798 5797 5795 5794 5792 5790 5788 5786 5784 5782 5781 5780 5779 5778 5777 5776 5774 5773 5771 5770 5769 5767 5765 5764 5763 5762 5761 5759 5758 5756 5754 5750
5787 5789 5790 5791 5792 5793 5794 5795 5796 5797 5797 5798 5799 5800 5800 5801 5802 5802 5803 5803 5804 5804 5805 5805 5805 5806 5806 5806 5807 5807 5808 5809 5809 5810 5810 5810 5810 5810 5809 5809 5809 5809 5809 5808 5808 5807 5806 5805 5804 5802 5801 5800 5799 5798 5797 5796 5794 5793 5791 5789 5787 5785 5783 5782 5780 5779 5778 5777 5776 5775 5774 5772 5770 5769 5767 5766 5764 5763 5761 5760 5759 5758 5757 5756 5754 5751 5748
5785 5786 5787 5788 5789 5791 5792 5793 5793 5794 5795 5796 5797 5797 5798 5799 5800 5800 5801 5801 5802 5802 5803 5803 5803 5804 5804 5804 5805 5805 5806 5807 5807 5807 5807 5807 5807 5807 5807 5807 5807 5806 5806 5806 5805 5805 5803 5802 5801 5800 5798 5798 5797 5796 5795 5794 5792 5790 5788 5786 5785 5783 5781 5780 5779 5778 5776 5775 5774 5773 5771 5770 5769 5767 5765 5764 5762 5761 5759 5758 5757 5756 5755 5753 5751 5749 5746
5782 5783 5785 5786 5787 5788 5789 5790 5791 5792 5793 5794 5795 5795 5796 5797 5798 5798 5799 5799 5800 5800 5801 5801 5801 5802 5802 5803 5803 5804 5804 5805 5805 5805 5805 5805 5805 5805 5805 5805 5805 5804 5804 5804 5803 5802 5801 5800 5798 5797 5796 5796 5795 5794 5792 5791 5790 5788 5786 5784 5782 5781 5779 5778 5777 5776 5775 5773 5772 5771 5769 5768 5767 5765 5764 5763 5761 5759 5758 5757 5755 5754 5753 5751 5749 5746 5743
5780 5781 5782 5783 5784 5785 5786 5787 5788 5789 5790 5791 5792 5793 5794 5795 5796 5796 5797 5797 5798 5798 5799 5799 5800 5800 5801 5801 5801 5802 5802 5802 5803 5803 5803 5803 5803 5803 5803 5803 5803 5802 5802 5802 5801 5800 5799 5797 5796 5795 5794 5793 5792 5791 5790 5789 5787 5785 5784 5782 5780 5779 5777 5776 5775 5774 5772 5771 5770 5768 5767 5766 5764 5763 5762 5761 5759 5758 5757 5755 5754 5753 5751 5750 5747 5744 5741
5777 5778 5779 5780 5781 5783 5784 5785 5786 5787 5788 5789 5790 5791 5792 5793 5794 5794 5795 5795 5796 5796 5797 5798 5798 5799 5799 5799 5799 5800 5800 5800 5800 5801 5801 5801 5801 5800 5800 5800 5800 5800 5800 5800 5799 5798 5796 5795 5794 5793 5792 5791 5790 5789 5788 5786 5785 5783 5781 5780 5778 5777 5775 5774 5772 5771 5770 5769 5767 5766 5765 5763 5762 5761 5760 5759 5757 5756 5755 5754 5752 5751 5749 5748 5745 5743 5740
5774 5775 5776 5778 5779 5780 5781 5782 5783 5784 5785 5786 5788 5789 5790 5791 5791 5792 5792 5793 5794 5795 5795 5796 5797 5797 5797 5797 5798 5798 5798 5798 5798 5798 5798 5798 5799 5798 5798 5798 5798 5798 5798 5797 5796 5795 5794 5793 5791 5790 5789 5788 5788 5787 5785 5784 5782 5781 5779 5777 5776 5775 5773 5772 5770 5769 5768 5766 5765 5764 5763 5761 5760 5758 5757 5757 5755 5754 5753 5752 5751 5749 5748 5746 5744 5741 5738
5771 5772 5774 5775 5776 5777 5778 5779 5781 5782 5783 5784 5785 5786 5787 5789 5789 5790 5791 5791 5792 5793 5794 5794 5795 5795 5795 5796 5796 5796 5796 5796 5796 5796 5796 5796 5796 5796 5796 5796 5796 5796 5795 5795 5794 5792 5791 5790 5789 5788 5787 5786 5785 5784 5783 5781 5780 5778 5777 5775 5774 5773 5771 5770 5768 5767 5766 5764 5763 5762 5760 5759 5758 5756 5755 5755 5754 5752 5751 5750 5749 5747 5746 5744 5742 5740 5737
5768 5769 5771 5772 5773 5775 5776 5777 5778 5779 5780 5782 5783 5784 5786 5787 5787 5788 5788 5789 5790 5790 5792 5792 5793 5793 5793 5793 5794 5794 5794 5794 5794 5794 5794 5794 5794 5794 5794 5794 5794 5793 5793 5792 5791 5790 5789 5788 5787 5786 5785 5784 5783 5782 5781 5779 5777 5776 5774 5773 5771 5770 5769 5768 5766 5765 5764 5762 5761 5759 5758 5757 5756 5755 5753 5753 5752 5751 5750 5749 5748 5746 5745 5743 5741 5738 5735
5765 5766 5768 5769 5771 5772 5773 5774 5775 5777 5778 5780 5781 5782 5783 5784 5785 5785 5785 5786 5787 5788 5789 5790 5790 5790 5791 5791 5791 5791 5791 5791 5791 5791 5791 5791 5792 5792 5792 5792 5792 5791 5790 5789 5788 5787 5786 5785 5784 5783 5782 5781 5780 5779 5778 5776 5775 5773 5772 5771 5769 5768 5767 5765 5764 5763 5762 5760 5758 5757 5756 5755 5754 5753 5751 5751 5750 5749 5748 5747 5746 5745 5744 5742 5740 5737 5734
5761 5763 5764 5766 5767 5769 5770 5771 5773 5774 5776 5778 5779 5780 5781 5781 5782 5782 5783 5783 5785 5786 5787 5787 5788 5788 5788 5789 5789 5789 5789 5789 5789 5789 5789 5789 5789 5789 5790 5789 5789 5788 5787 5786 5785 5785 5784 5782 5781 5780 5779 5778 5777 5776 5775 5773 5772 5771 5770 5768 5767 5766 5764 5763 5762 5760 5759 5758 5756 5755 5754 5753 5752 5751 5750 5748 5748 5747 5747 5746 5745 5744 5742 5741 5739 5736 5733
5757 5759 5761 5763 5764 5766 5767 5768 5770 5772 5774 5775 5776 5777 5778 5778 5779 5780 5780 5781 5782 5783 5784 5785 5785 5785 5786 5786 5786 5786 5786 5786 5786 5786 5787 5787 5787 5787 5787 5787 5787 5786 5784 5783 5783 5782 5781 5780 5779 5778 5777 5775 5774 5773 5772 5770 5769 5768 5767 5766 5764 5763 5762 5761 5759 5758 5757 5755 5754 5752 5751 5751 5750 5749 5748 5746 5746 5745 5745 5744 5743 5742 5741 5739 5737 5735 5732
5754 5756 5758 5759 5761 5762 5764 5765 5767 5769 5771 5773 5774 5775 5775 5776 5776 5777 5777 5778 5779 5781 5781 5782 5782 5783 5783 5784 5784 5784 5784 5784 5784 5784 5784 5784 5784 5785 5785 5785 5784 5783 5782 5781 5780 5779 5778 5778 5777 5776 5774 5773 5772 5771 5769 5768 5767 5766 5765 5763 5762 5761 5760 5759 5757 5756 5754 5753 5752 5750 5749 5749 5748 5747 5746 5745 5744 5744 5744 5743 5742 5741 5739 5738 5736 5734 5732
5750 5752 5754 5756 5757 5759 5760 5762 5764 5766 5768 5770 5771 5772 5773 5773 5774 5774 5775 5776 5777 5778 5779 5779 5780 5780 5781 5781 5781 5781 5782 5782 5782 5782 5782 5782 5782 5782 5782 5782 5781 5780 5779 5779 5778 5777 5776 5775 5775 5774 5772 5771 5770 5769 5767 5766 5765 5764 5762 5761 5759 5758 5757 5756 5755 5753 5752 5751 5749 5748 5747 5747 5746 5745 5744 5743 5742 5742 5742 5741 5740 5739 5738 5737 5735 5733 5731
5746 5749 5751 5752 5753 5755 5757 5758 5761 5763 5765 5766 5768 5769 5770 5771 5771 5772 5772 5773 5774 5775 5776 5776 5777 5778 5778 5779 5779 5779 5779 5779 5779 5780 5780 5780 5780 5780 5780 5779 5779 5778 5777 5776 5775 5774 5773 5773 5772 5771 5770 5769 5768 5766 5765 5764 5763 5761 5760 5759 5757 5756 5755 5754 5753 5751 5750 5749 5747 5746 5745 5745 5744 5743 5742 5741 5740 5740 5740 5739 5739 5738 5737 5736 5734 5733 5731
5743 5745 5747 5748 5749 5751 5753 5755 5757 5760 5762 5763 5764 5766 5767 5768 5768 5769 5770 5770 5771 5772 5773 5773 5774 5775 5776 5776 5776 5777 5777 5777 5777 5777 5778 5778 5778 5777 5777 5776 5776 5775 5774 5774 5773 5772 5771 5770 5769 5768 5767 5766 5765 5764 5763 5762 5760 5759 5758 5757 5755 5754 5753 5752 5750 5749 5748 5747 5745 5744 5743 5742 5741 5741 5740 5739 5739 5738 5737 5737 5737 5737 5736 5734 5733 5732 5730